Find Local Weather

World > North America > United States > Wisconsin

Green Lake, Wisconsin Regional Weather

Lat: 43.84N, Lon: 88.96W
Wx Zone: WIZ047
Warning FLW WEATHER ALERT - (More Info. Click Here) Warning
Feedback
Expires:201810170300;;299762
ASUS43 KMKX 170221
RWRWI 

WISCONSIN REGIONAL WEATHER ROUNDUP
NATIONAL WEATHER SERVICE MILWAUKEE/SULLIVAN WI
900 PM CDT TUE OCT 16 2018

NOTE: "FAIR" INDICATES FEW OR NO CLOUDS BELOW 12,000 FEET WITH NO
SIGNIFICANT WEATHER AND/OR OBSTRUCTIONS TO VISIBILITY.


WIZ029-030-035-036-043>047-170300-
CENTRAL WISCONSIN
  
CITY           SKY/WX    TMP DP  RH WIND       PRES   REMARKS
WAUSAU         CLOUDY    46  27  47 NW9G18    29.96R                  
MOSINEE        MOCLDY    45  30  57 NW10      29.98R                  
MARSHFIELD     FAIR      41  30  65 NW9       29.98R                  
STEVENS POINT  FAIR      43  28  56 W5        29.98S                  
WAUPACA        FAIR      48  31  51 W8        29.98R                  
WAUTOMA        MOCLDY    47  31  53 W7        29.99R                  
WISC RAPIDS    FAIR      44  28  53 NW6       30.00R                  
CAMP DOUGLAS   MOCLDY    41  34  75 W7        30.01R                  
$$
 

SKY/WX - Weather  TMP - Temperature  DP - Dew Point  RH - Relative Humidity
WIND - Wind Direction/Speed PRES - Barometric Pressure
Opt in/Opt out of Taboola Video Ads